Year,Month,Day,Hour,Minute,Value (Times are PST for temperature in C)
2008,11,18,00,00,8.90
2008,11,18,00,01,8.90
2008,11,18,00,02,8.90
2008,11,18,00,03,8.90
2008,11,18,00,04,8.90
2008,11,18,00,05,8.90
2008,11,18,00,06,9.00
2008,11,18,00,07,9.00
2008,11,18,00,08,9.00
2008,11,18,00,09,9.00
2008,11,18,00,10,9.00
2008,11,18,00,11,9.00
2008,11,18,00,12,8.90
2008,11,18,00,13,8.90
2008,11,18,00,14,8.90
2008,11,18,00,15,8.90
2008,11,18,00,16,8.90
2008,11,18,00,17,8.90
2008,11,18,00,18,8.90
2008,11,18,00,19,8.90
2008,11,18,00,20,8.80
2008,11,18,00,21,8.80
2008,11,18,00,22,8.80
2008,11,18,00,23,8.80
2008,11,18,00,24,8.80
2008,11,18,00,25,8.80
2008,11,18,00,26,8.80
2008,11,18,00,27,8.90
2008,11,18,00,28,8.90
2008,11,18,00,29,8.90
2008,11,18,00,30,8.90
2008,11,18,00,31,8.90
2008,11,18,00,32,8.80
2008,11,18,00,33,8.80
2008,11,18,00,34,8.80
2008,11,18,00,35,8.80
2008,11,18,00,36,8.90
2008,11,18,00,37,8.90
2008,11,18,00,38,9.00
2008,11,18,00,39,9.00
2008,11,18,00,40,9.00
2008,11,18,00,41,9.10
2008,11,18,00,42,9.10
2008,11,18,00,43,9.10
2008,11,18,00,44,9.10
2008,11,18,00,45,9.10
2008,11,18,00,46,9.10
2008,11,18,00,47,9.10
2008,11,18,00,48,9.10
2008,11,18,00,49,9.10
2008,11,18,00,50,9.10
2008,11,18,00,51,9.10
2008,11,18,00,52,9.10
2008,11,18,00,53,9.10
2008,11,18,00,54,9.10
2008,11,18,00,55,9.10
2008,11,18,00,56,9.10
2008,11,18,00,57,9.10
2008,11,18,00,58,9.10
2008,11,18,00,59,9.10
2008,11,18,01,00,9.10
2008,11,18,01,01,9.10
2008,11,18,01,02,9.10
2008,11,18,01,03,9.10
2008,11,18,01,04,9.10
2008,11,18,01,05,9.10
2008,11,18,01,06,9.10
2008,11,18,01,07,9.10
2008,11,18,01,08,9.10
2008,11,18,01,09,9.10
2008,11,18,01,10,9.10
2008,11,18,01,11,9.10
2008,11,18,01,12,9.10
2008,11,18,01,13,9.10
2008,11,18,01,14,9.10
2008,11,18,01,15,9.10
2008,11,18,01,16,9.10
2008,11,18,01,17,9.10
2008,11,18,01,18,9.10
2008,11,18,01,19,9.10
2008,11,18,01,20,9.10
2008,11,18,01,21,9.10
2008,11,18,01,22,9.20
2008,11,18,01,23,9.20
2008,11,18,01,24,9.20
2008,11,18,01,25,9.20
2008,11,18,01,26,9.20
2008,11,18,01,27,9.20
2008,11,18,01,28,9.20
2008,11,18,01,29,9.20
2008,11,18,01,30,9.20
2008,11,18,01,31,9.20
2008,11,18,01,32,9.20
2008,11,18,01,33,9.20
2008,11,18,01,34,9.20
2008,11,18,01,35,9.20
2008,11,18,01,36,9.20
2008,11,18,01,37,9.20
2008,11,18,01,38,9.20
2008,11,18,01,39,9.20
2008,11,18,01,40,9.20
2008,11,18,01,41,9.20
2008,11,18,01,42,9.20
2008,11,18,01,43,9.20
2008,11,18,01,44,9.20
2008,11,18,01,45,9.20
2008,11,18,01,46,9.30
2008,11,18,01,47,9.30
2008,11,18,01,48,9.30
2008,11,18,01,49,9.30
2008,11,18,01,50,9.30
2008,11,18,01,51,9.30
2008,11,18,01,52,9.30
2008,11,18,01,53,9.30
2008,11,18,01,54,9.30
2008,11,18,01,55,9.20
2008,11,18,01,56,9.20
2008,11,18,01,57,9.20
2008,11,18,01,58,9.20
2008,11,18,01,59,9.20
2008,11,18,02,00,9.20
2008,11,18,02,01,9.20
2008,11,18,02,02,9.20
2008,11,18,02,03,9.20
2008,11,18,02,04,9.20
2008,11,18,02,05,9.20
2008,11,18,02,06,9.20
2008,11,18,02,07,9.20
2008,11,18,02,08,9.20
2008,11,18,02,09,9.20
2008,11,18,02,10,9.20
2008,11,18,02,11,9.10
2008,11,18,02,12,9.10
2008,11,18,02,13,9.10
2008,11,18,02,14,9.10
2008,11,18,02,15,9.00
2008,11,18,02,16,9.00
2008,11,18,02,17,9.00
2008,11,18,02,18,9.10
2008,11,18,02,19,9.10
2008,11,18,02,20,9.10
2008,11,18,02,21,9.20
2008,11,18,02,22,9.30
2008,11,18,02,23,9.40
2008,11,18,02,24,9.50
2008,11,18,02,25,9.60
2008,11,18,02,26,9.80
2008,11,18,02,27,10.10
2008,11,18,02,28,10.50
2008,11,18,02,29,10.80
2008,11,18,02,30,11.00
2008,11,18,02,31,11.30
2008,11,18,02,32,11.50
2008,11,18,02,33,11.60
2008,11,18,02,34,11.70
2008,11,18,02,35,11.90
2008,11,18,02,36,12.00
2008,11,18,02,37,12.10
2008,11,18,02,38,12.10
2008,11,18,02,39,12.10
2008,11,18,02,40,12.10
2008,11,18,02,41,12.10
2008,11,18,02,42,12.10
2008,11,18,02,43,12.10
2008,11,18,02,44,12.10
2008,11,18,02,45,12.10
2008,11,18,02,46,12.10
2008,11,18,02,47,12.20
2008,11,18,02,48,12.20
2008,11,18,02,49,12.20
2008,11,18,02,50,12.20
2008,11,18,02,51,12.20
2008,11,18,02,52,12.20
2008,11,18,02,53,12.20
2008,11,18,02,54,12.20
2008,11,18,02,55,12.20
2008,11,18,02,56,12.30
2008,11,18,02,57,12.30
2008,11,18,02,58,12.30
2008,11,18,02,59,12.30
2008,11,18,03,00,12.40
2008,11,18,03,01,12.40
2008,11,18,03,02,12.40
2008,11,18,03,03,12.40
2008,11,18,03,04,12.40
2008,11,18,03,05,12.40
2008,11,18,03,06,12.40
2008,11,18,03,07,12.40
2008,11,18,03,08,12.40
2008,11,18,03,09,12.40
2008,11,18,03,10,12.40
2008,11,18,03,11,12.30
2008,11,18,03,12,12.30
2008,11,18,03,13,12.30
2008,11,18,03,14,12.30
2008,11,18,03,15,12.30
2008,11,18,03,16,12.30
2008,11,18,03,17,12.30
2008,11,18,03,18,12.30
2008,11,18,03,19,12.30
2008,11,18,03,20,12.30
2008,11,18,03,21,12.40
2008,11,18,03,22,12.40
2008,11,18,03,23,12.30
2008,11,18,03,24,12.30
2008,11,18,03,25,12.30
2008,11,18,03,26,12.30
2008,11,18,03,27,12.30
2008,11,18,03,28,12.30
2008,11,18,03,29,12.30
2008,11,18,03,30,12.30
2008,11,18,03,31,12.30
2008,11,18,03,32,12.30
2008,11,18,03,33,12.30
2008,11,18,03,34,12.30
2008,11,18,03,35,12.30
2008,11,18,03,36,12.30
2008,11,18,03,37,12.30
2008,11,18,03,38,12.30
2008,11,18,03,39,12.20
2008,11,18,03,40,12.20
2008,11,18,03,41,12.20
2008,11,18,03,42,12.20
2008,11,18,03,43,12.20
2008,11,18,03,44,12.20
2008,11,18,03,45,12.20
2008,11,18,03,46,12.20
2008,11,18,03,47,12.20
2008,11,18,03,48,12.20
2008,11,18,03,49,12.20
2008,11,18,03,50,12.20
2008,11,18,03,51,12.20
2008,11,18,03,52,12.20
2008,11,18,03,53,12.20
2008,11,18,03,54,12.20
2008,11,18,03,55,12.10
2008,11,18,03,56,12.10
2008,11,18,03,57,12.10
2008,11,18,03,58,12.10
2008,11,18,03,59,12.10
2008,11,18,04,00,12.10
2008,11,18,04,01,12.10
2008,11,18,04,02,12.10
2008,11,18,04,03,12.10
2008,11,18,04,04,12.10
2008,11,18,04,05,12.10
2008,11,18,04,06,12.10
2008,11,18,04,07,12.00
2008,11,18,04,09,12.00
2008,11,18,04,12,12.00
2008,11,18,04,13,12.00
2008,11,18,04,14,12.00
2008,11,18,04,15,11.90
2008,11,18,04,16,11.90
2008,11,18,04,17,11.80
2008,11,18,04,18,11.70
2008,11,18,04,19,11.60
2008,11,18,04,20,11.50
2008,11,18,04,21,11.30
2008,11,18,04,22,11.20
2008,11,18,04,23,11.10
2008,11,18,04,24,11.10
2008,11,18,04,25,11.00
2008,11,18,04,26,10.90
2008,11,18,04,27,10.80
2008,11,18,04,28,10.70
2008,11,18,04,29,10.70
2008,11,18,04,30,10.60
2008,11,18,04,31,10.60
2008,11,18,04,32,10.50
2008,11,18,04,33,10.50
2008,11,18,04,34,10.40
2008,11,18,04,35,10.40
2008,11,18,04,36,10.30
2008,11,18,04,37,10.30
2008,11,18,04,38,10.30
2008,11,18,04,39,10.20
2008,11,18,04,40,10.20
2008,11,18,04,41,10.20
2008,11,18,04,42,10.20
2008,11,18,04,43,10.20
2008,11,18,04,44,10.20
2008,11,18,04,45,10.20
2008,11,18,04,46,10.20
2008,11,18,04,47,10.10
2008,11,18,04,48,10.10
2008,11,18,04,49,10.10
2008,11,18,04,50,10.10
2008,11,18,04,51,10.10
2008,11,18,04,52,10.10
2008,11,18,04,53,10.10
2008,11,18,04,54,10.10
2008,11,18,04,55,10.10
2008,11,18,04,56,10.00
2008,11,18,04,57,10.00
2008,11,18,04,58,10.00
2008,11,18,04,59,10.00
2008,11,18,05,00,9.90
2008,11,18,05,01,9.90
2008,11,18,05,02,9.90
2008,11,18,05,03,9.90
2008,11,18,05,04,9.90
2008,11,18,05,05,9.90
2008,11,18,05,06,9.90
2008,11,18,05,07,9.90
2008,11,18,05,08,9.90
2008,11,18,05,09,9.90
2008,11,18,05,10,9.90
2008,11,18,05,11,9.90
2008,11,18,05,12,9.80
2008,11,18,05,13,9.80
2008,11,18,05,14,9.80
2008,11,18,05,15,9.80
2008,11,18,05,16,9.80
2008,11,18,05,17,9.70
2008,11,18,05,18,9.70
2008,11,18,05,19,9.70
2008,11,18,05,20,9.70
2008,11,18,05,21,9.70
2008,11,18,05,22,9.70
2008,11,18,05,23,9.70
2008,11,18,05,24,9.70
2008,11,18,05,25,9.70
2008,11,18,05,26,9.70
2008,11,18,05,27,9.70
2008,11,18,05,28,9.70
2008,11,18,05,29,9.70
2008,11,18,05,30,9.60
2008,11,18,05,31,9.60
2008,11,18,05,32,9.60
2008,11,18,05,33,9.60
2008,11,18,05,34,9.60
2008,11,18,05,35,9.60
2008,11,18,05,36,9.60
2008,11,18,05,37,9.60
2008,11,18,05,38,9.50
2008,11,18,05,39,9.50
2008,11,18,05,40,9.50
2008,11,18,05,41,9.50
2008,11,18,05,42,9.40
2008,11,18,05,43,9.40
2008,11,18,05,44,9.40
2008,11,18,05,45,9.40
2008,11,18,05,46,9.40
2008,11,18,05,47,9.40
2008,11,18,05,48,9.40
2008,11,18,05,49,9.40
2008,11,18,05,50,9.40
2008,11,18,05,51,9.30
2008,11,18,05,52,9.30
2008,11,18,05,53,9.30
2008,11,18,05,54,9.30
2008,11,18,05,55,9.30
2008,11,18,05,56,9.30
2008,11,18,05,57,9.30
2008,11,18,05,58,9.30
2008,11,18,05,59,9.30
2008,11,18,06,00,9.30
2008,11,18,06,01,9.30
2008,11,18,06,02,9.30
2008,11,18,06,03,9.30
2008,11,18,06,04,9.30
2008,11,18,06,05,9.30
2008,11,18,06,06,9.30
2008,11,18,06,07,9.30
2008,11,18,06,08,9.30
2008,11,18,06,09,9.30
2008,11,18,06,10,9.30
2008,11,18,06,11,9.40
2008,11,18,06,12,9.40
2008,11,18,06,13,9.40
2008,11,18,06,14,9.40
2008,11,18,06,15,9.40
2008,11,18,06,16,9.40
2008,11,18,06,17,9.40
2008,11,18,06,18,9.40
2008,11,18,06,19,9.40
2008,11,18,06,20,9.40
2008,11,18,06,21,9.40
2008,11,18,06,22,9.50
2008,11,18,06,23,9.50
2008,11,18,06,24,9.50
2008,11,18,06,25,9.50
2008,11,18,06,26,9.50
2008,11,18,06,27,9.50
2008,11,18,06,28,9.50
2008,11,18,06,29,9.50
2008,11,18,06,30,9.50
2008,11,18,06,31,9.50
2008,11,18,06,32,9.40
2008,11,18,06,33,9.40
2008,11,18,06,34,9.40
2008,11,18,06,35,9.40
2008,11,18,06,36,9.40
2008,11,18,06,37,9.40
2008,11,18,06,38,9.40
2008,11,18,06,39,9.40
2008,11,18,06,40,9.50
2008,11,18,06,41,9.50
2008,11,18,06,42,9.50
2008,11,18,06,43,9.50
2008,11,18,06,44,9.50
2008,11,18,06,45,9.50
2008,11,18,06,46,9.50
2008,11,18,06,47,9.50
2008,11,18,06,48,9.50
2008,11,18,06,49,9.40
2008,11,18,06,50,9.40
2008,11,18,06,51,9.50
2008,11,18,06,52,9.40
2008,11,18,06,53,9.50
2008,11,18,06,54,9.40
2008,11,18,06,55,9.50
2008,11,18,06,56,9.40
2008,11,18,06,57,9.40
2008,11,18,06,58,9.40
2008,11,18,06,59,9.40
2008,11,18,07,00,9.40
2008,11,18,07,01,9.40
2008,11,18,07,02,9.40
2008,11,18,07,03,9.40
2008,11,18,07,04,9.40
2008,11,18,07,05,9.40
2008,11,18,07,06,9.40
2008,11,18,07,07,9.40
2008,11,18,07,08,9.40
2008,11,18,07,09,9.40
2008,11,18,07,10,9.40
2008,11,18,07,11,9.40
2008,11,18,07,12,9.40
2008,11,18,07,13,9.40
2008,11,18,07,14,9.30
2008,11,18,07,15,9.30
2008,11,18,07,16,9.30
2008,11,18,07,17,9.30
2008,11,18,07,18,9.30
2008,11,18,07,19,9.30
2008,11,18,07,20,9.30
2008,11,18,07,21,9.20
2008,11,18,07,22,9.20
2008,11,18,07,23,9.20
2008,11,18,07,24,9.20
2008,11,18,07,25,9.20
2008,11,18,07,26,9.20
2008,11,18,07,27,9.20
2008,11,18,07,28,9.20
2008,11,18,07,29,9.20
2008,11,18,07,30,9.20
2008,11,18,07,31,9.20
2008,11,18,07,32,9.20
2008,11,18,07,33,9.10
2008,11,18,07,34,9.10
2008,11,18,07,35,9.10
2008,11,18,07,36,9.10
2008,11,18,07,37,9.10
2008,11,18,07,38,9.10
2008,11,18,07,39,9.10
2008,11,18,07,40,9.10
2008,11,18,07,41,9.20
2008,11,18,07,42,9.20
2008,11,18,07,43,9.20
2008,11,18,07,44,9.20
2008,11,18,07,45,9.20
2008,11,18,07,46,9.20
2008,11,18,07,47,9.20
2008,11,18,07,48,9.20
2008,11,18,07,49,9.20
2008,11,18,07,50,9.20
2008,11,18,07,51,9.20
2008,11,18,07,52,9.20
2008,11,18,07,53,9.20
2008,11,18,07,54,9.10
2008,11,18,07,55,9.10
2008,11,18,07,56,9.10
2008,11,18,07,57,9.10
2008,11,18,07,58,9.10
2008,11,18,07,59,9.10
2008,11,18,08,00,9.10
2008,11,18,08,01,9.10
2008,11,18,08,02,9.10
2008,11,18,08,03,9.10
2008,11,18,08,04,9.10
2008,11,18,08,05,9.10
2008,11,18,08,06,9.10
2008,11,18,08,07,9.20
2008,11,18,08,08,9.20
2008,11,18,08,09,9.20
2008,11,18,08,10,9.20
2008,11,18,08,11,9.20
2008,11,18,08,12,9.20
2008,11,18,08,13,9.20
2008,11,18,08,14,9.20
2008,11,18,08,15,9.20
2008,11,18,08,16,9.20
2008,11,18,08,17,9.20
2008,11,18,08,18,9.10
2008,11,18,08,19,9.10
2008,11,18,08,20,9.10
2008,11,18,08,21,9.10
2008,11,18,08,22,9.20
2008,11,18,08,23,9.20
2008,11,18,08,24,9.20
2008,11,18,08,25,9.20
2008,11,18,08,26,9.20
2008,11,18,08,27,9.20
2008,11,18,08,28,9.20
2008,11,18,08,29,9.20
2008,11,18,08,30,9.20
2008,11,18,08,31,9.20
2008,11,18,08,32,9.20
2008,11,18,08,33,9.20
2008,11,18,08,34,9.20
2008,11,18,08,35,9.20
2008,11,18,08,36,9.20
2008,11,18,08,37,9.20
2008,11,18,08,38,9.20
2008,11,18,08,39,9.10
2008,11,18,08,40,9.10
2008,11,18,08,41,9.10
2008,11,18,08,42,9.10
2008,11,18,08,43,9.10
2008,11,18,08,44,9.10
2008,11,18,08,45,9.10
2008,11,18,08,46,9.00
2008,11,18,08,47,9.00
2008,11,18,08,48,9.00
2008,11,18,08,49,9.00
2008,11,18,08,50,8.90
2008,11,18,08,51,8.90
2008,11,18,08,52,8.90
2008,11,18,08,53,8.90
2008,11,18,08,54,8.90
2008,11,18,08,55,8.90
2008,11,18,08,56,8.90
2008,11,18,08,57,8.90
2008,11,18,08,58,8.90
2008,11,18,08,59,8.90
2008,11,18,09,00,8.90
2008,11,18,09,01,8.90
2008,11,18,09,02,8.90
2008,11,18,09,03,8.90
2008,11,18,09,04,8.90
2008,11,18,09,05,8.90
2008,11,18,09,06,8.90
2008,11,18,09,07,8.90
2008,11,18,09,08,8.80
2008,11,18,09,09,8.80
2008,11,18,09,10,8.80
2008,11,18,09,11,8.80
2008,11,18,09,12,8.80
2008,11,18,09,13,8.80
2008,11,18,09,14,8.80
2008,11,18,09,15,8.80
2008,11,18,09,16,8.80
2008,11,18,09,17,8.80
2008,11,18,09,18,8.80
2008,11,18,09,19,8.80
2008,11,18,09,20,8.80
2008,11,18,09,21,8.80
2008,11,18,09,22,8.80
2008,11,18,09,23,8.80
2008,11,18,09,24,8.80
2008,11,18,09,25,8.80
2008,11,18,09,26,8.80
2008,11,18,09,27,8.80
2008,11,18,09,28,8.80
2008,11,18,09,29,8.90
2008,11,18,09,30,8.90
2008,11,18,09,31,8.90
2008,11,18,09,32,8.90
2008,11,18,09,33,8.90
2008,11,18,09,34,9.00
2008,11,18,09,35,9.00
2008,11,18,09,36,9.10
2008,11,18,09,37,9.10
2008,11,18,09,38,9.20
2008,11,18,09,39,9.20
2008,11,18,09,40,9.20
2008,11,18,09,41,9.30
2008,11,18,09,42,9.30
2008,11,18,09,43,9.30
2008,11,18,09,44,9.30
2008,11,18,09,45,9.40
2008,11,18,09,46,9.40
2008,11,18,09,47,9.50
2008,11,18,09,48,9.50
2008,11,18,09,49,9.60
2008,11,18,09,50,9.60
2008,11,18,09,51,9.60
2008,11,18,09,52,9.60
2008,11,18,09,53,9.60
2008,11,18,09,54,9.60
2008,11,18,09,55,9.60
2008,11,18,09,56,9.60
2008,11,18,09,57,9.60
2008,11,18,09,58,9.60
2008,11,18,09,59,9.60
2008,11,18,10,00,9.60
2008,11,18,10,01,9.60
2008,11,18,10,02,9.60
2008,11,18,10,03,9.60
2008,11,18,10,04,9.60
2008,11,18,10,05,9.60
2008,11,18,10,06,9.60
2008,11,18,10,07,9.60
2008,11,18,10,08,9.60
2008,11,18,10,09,9.60
2008,11,18,10,10,9.70
2008,11,18,10,11,9.70
2008,11,18,10,12,9.70
2008,11,18,10,13,9.70
2008,11,18,10,14,9.70
2008,11,18,10,15,9.70
2008,11,18,10,16,9.80
2008,11,18,10,17,9.80
2008,11,18,10,18,9.80
2008,11,18,10,19,9.80
2008,11,18,10,20,9.90
2008,11,18,10,21,9.90
2008,11,18,10,22,9.90
2008,11,18,10,23,10.00
2008,11,18,10,24,10.00
2008,11,18,10,25,10.10
2008,11,18,10,26,10.10
2008,11,18,10,27,10.20
2008,11,18,10,28,10.30
2008,11,18,10,29,10.30
2008,11,18,10,30,10.30
2008,11,18,10,31,10.30
2008,11,18,10,32,10.30
2008,11,18,10,33,10.40
2008,11,18,10,34,10.40
2008,11,18,10,35,10.40
2008,11,18,10,36,10.40
2008,11,18,10,37,10.40
2008,11,18,10,38,10.40
2008,11,18,10,39,10.40
2008,11,18,10,40,10.40
2008,11,18,10,41,10.40
2008,11,18,10,42,10.40
2008,11,18,10,43,10.40
2008,11,18,10,44,10.40
2008,11,18,10,45,10.40
2008,11,18,10,46,10.40
2008,11,18,10,47,10.40
2008,11,18,10,48,10.30
2008,11,18,10,49,10.30
2008,11,18,10,50,10.40
2008,11,18,10,51,10.40
2008,11,18,10,52,10.40
2008,11,18,10,53,10.40
2008,11,18,10,54,10.40
2008,11,18,10,55,10.50
2008,11,18,10,56,10.50
2008,11,18,10,57,10.60
2008,11,18,10,58,10.60
2008,11,18,10,59,10.60
2008,11,18,11,00,10.60
2008,11,18,11,01,10.70
2008,11,18,11,02,10.70
2008,11,18,11,03,10.70
2008,11,18,11,04,10.70
2008,11,18,11,05,10.80
2008,11,18,11,06,10.80
2008,11,18,11,07,10.80
2008,11,18,11,08,10.80
2008,11,18,11,09,10.80
2008,11,18,11,10,10.80
2008,11,18,11,11,10.80
2008,11,18,11,12,10.80
2008,11,18,11,13,10.80
2008,11,18,11,14,10.80
2008,11,18,11,15,10.90
2008,11,18,11,16,10.90
2008,11,18,11,17,10.90
2008,11,18,11,18,11.00
2008,11,18,11,19,11.00
2008,11,18,11,20,11.00
2008,11,18,11,21,11.00
2008,11,18,11,22,11.10
2008,11,18,11,23,11.10
2008,11,18,11,24,11.10
2008,11,18,11,25,11.10
2008,11,18,11,26,11.10
2008,11,18,11,27,11.10
2008,11,18,11,28,11.20
2008,11,18,11,29,11.20
2008,11,18,11,30,11.20
2008,11,18,11,31,11.10
2008,11,18,11,32,11.10
2008,11,18,11,33,11.10
2008,11,18,11,34,11.10
2008,11,18,11,35,11.10
2008,11,18,11,36,11.10
2008,11,18,11,37,11.10
2008,11,18,11,38,11.20
2008,11,18,11,39,11.20
2008,11,18,11,40,11.20
2008,11,18,11,41,11.20
2008,11,18,11,42,11.20
2008,11,18,11,43,11.20
2008,11,18,11,44,11.20
2008,11,18,11,45,11.20
2008,11,18,11,46,11.20
2008,11,18,11,47,11.20
2008,11,18,11,48,11.20
2008,11,18,11,49,11.30
2008,11,18,11,50,11.30
2008,11,18,11,51,11.30
2008,11,18,11,52,11.30
2008,11,18,11,53,11.30
2008,11,18,11,54,11.30
2008,11,18,11,55,11.30
2008,11,18,11,56,11.30
2008,11,18,11,57,11.30
2008,11,18,11,58,11.30
2008,11,18,11,59,11.30
2008,11,18,12,00,11.30
2008,11,18,12,01,11.30
2008,11,18,12,02,11.30
2008,11,18,12,03,11.30
2008,11,18,12,04,11.40
2008,11,18,12,05,11.40
2008,11,18,12,06,11.40
2008,11,18,12,07,11.40
2008,11,18,12,08,11.40
2008,11,18,12,09,11.40
2008,11,18,12,10,11.40
2008,11,18,12,11,11.40
2008,11,18,12,12,11.50
2008,11,18,12,13,11.50
2008,11,18,12,14,11.50
2008,11,18,12,15,11.40
2008,11,18,12,16,11.40
2008,11,18,12,17,11.40
2008,11,18,12,18,11.30
2008,11,18,12,19,11.30
2008,11,18,12,20,11.30
2008,11,18,12,21,11.30
2008,11,18,12,22,11.30
2008,11,18,12,23,11.40
2008,11,18,12,24,11.40
2008,11,18,12,25,11.40
2008,11,18,12,26,11.40
2008,11,18,12,27,11.40
2008,11,18,12,28,11.50
2008,11,18,12,29,11.40
2008,11,18,12,30,11.40
2008,11,18,12,31,11.40
2008,11,18,12,32,11.40
2008,11,18,12,33,11.40
2008,11,18,12,34,11.30
2008,11,18,12,35,11.30
2008,11,18,12,36,11.30
2008,11,18,12,37,11.30
2008,11,18,12,38,11.40
2008,11,18,12,39,11.40
2008,11,18,12,40,11.40
2008,11,18,12,41,11.40
2008,11,18,12,42,11.40
2008,11,18,12,43,11.40
2008,11,18,12,44,11.40
2008,11,18,12,45,11.30
2008,11,18,12,46,11.30
2008,11,18,12,47,11.30
2008,11,18,12,48,11.30
2008,11,18,12,49,11.30
2008,11,18,12,50,11.30
2008,11,18,12,51,11.30
2008,11,18,12,52,11.30
2008,11,18,12,53,11.30
2008,11,18,12,54,11.30
2008,11,18,12,55,11.40
2008,11,18,12,56,11.40
2008,11,18,12,57,11.50
2008,11,18,12,58,11.50
2008,11,18,12,59,11.60
2008,11,18,13,00,11.60
2008,11,18,13,01,11.60
2008,11,18,13,02,11.60
2008,11,18,13,03,11.50
2008,11,18,13,04,11.40
2008,11,18,13,05,11.40
2008,11,18,13,06,11.30
2008,11,18,13,07,11.20
2008,11,18,13,08,11.20
2008,11,18,13,09,11.10
2008,11,18,13,10,11.00
2008,11,18,13,11,11.00
2008,11,18,13,12,11.00
2008,11,18,13,13,11.00
2008,11,18,13,14,11.00
2008,11,18,13,15,10.90
2008,11,18,13,16,10.90
2008,11,18,13,17,10.90
2008,11,18,13,18,10.90
2008,11,18,13,19,10.90
2008,11,18,13,20,10.90
2008,11,18,13,21,11.00
2008,11,18,13,22,11.00
2008,11,18,13,23,11.10
2008,11,18,13,24,11.10
2008,11,18,13,25,11.10
2008,11,18,13,26,11.10
2008,11,18,13,27,11.20
2008,11,18,13,28,11.20
2008,11,18,13,29,11.20
2008,11,18,13,30,11.20
2008,11,18,13,31,11.30
2008,11,18,13,32,11.30
2008,11,18,13,33,11.40
2008,11,18,13,34,11.40
2008,11,18,13,35,11.40
2008,11,18,13,36,11.40
2008,11,18,13,37,11.40
2008,11,18,13,38,11.40
2008,11,18,13,39,11.40
2008,11,18,13,40,11.40
2008,11,18,13,41,11.40
2008,11,18,13,42,11.40
2008,11,18,13,43,11.40
2008,11,18,13,44,11.30
2008,11,18,13,45,11.30
2008,11,18,13,46,11.20
2008,11,18,13,47,11.20
2008,11,18,13,48,11.20
2008,11,18,13,49,11.20
2008,11,18,13,50,11.20
2008,11,18,13,51,11.20
2008,11,18,13,52,11.20
2008,11,18,13,53,11.20
2008,11,18,13,54,11.20
2008,11,18,13,55,11.20
2008,11,18,13,56,11.30
2008,11,18,13,57,11.30
2008,11,18,13,58,11.30
2008,11,18,13,59,11.30
2008,11,18,14,00,11.30
2008,11,18,14,01,11.30
2008,11,18,14,02,11.30
2008,11,18,14,03,11.30
2008,11,18,14,04,11.30
2008,11,18,14,05,11.40
2008,11,18,14,06,11.40
2008,11,18,14,07,11.40
2008,11,18,14,08,11.50
2008,11,18,14,09,11.60
2008,11,18,14,10,11.70
2008,11,18,14,11,11.70
2008,11,18,14,12,11.80
2008,11,18,14,13,11.80
2008,11,18,14,14,11.80
2008,11,18,14,15,11.90
2008,11,18,14,16,12.00
2008,11,18,14,17,12.00
2008,11,18,14,18,12.10
2008,11,18,14,19,12.10
2008,11,18,14,20,12.10
2008,11,18,14,21,12.10
2008,11,18,14,22,12.10
2008,11,18,14,23,12.10
2008,11,18,14,24,12.00
2008,11,18,14,25,12.00
2008,11,18,14,26,12.00
2008,11,18,14,27,12.00
2008,11,18,14,28,12.00
2008,11,18,14,29,11.90
2008,11,18,14,30,11.90
2008,11,18,14,31,11.90
2008,11,18,14,32,11.80
2008,11,18,14,33,11.80
2008,11,18,14,34,11.80
2008,11,18,14,35,11.80
2008,11,18,14,36,11.70
2008,11,18,14,37,11.70
2008,11,18,14,38,11.70
2008,11,18,14,39,11.60
2008,11,18,14,40,11.60
2008,11,18,14,41,11.70
2008,11,18,14,42,11.60
2008,11,18,14,43,11.60
2008,11,18,14,44,11.60
2008,11,18,14,45,11.60
2008,11,18,14,46,11.60
2008,11,18,14,47,11.50
2008,11,18,14,48,11.50
2008,11,18,14,49,11.40
2008,11,18,14,50,11.30
2008,11,18,14,51,11.30
2008,11,18,14,52,11.20
2008,11,18,14,53,11.10
2008,11,18,14,54,11.00
2008,11,18,14,55,10.90
2008,11,18,14,56,10.90
2008,11,18,14,57,10.80
2008,11,18,14,58,10.80
2008,11,18,14,59,10.70
2008,11,18,15,00,10.70
2008,11,18,15,01,10.70
2008,11,18,15,02,10.60
2008,11,18,15,03,10.60
2008,11,18,15,04,10.50
2008,11,18,15,05,10.30
2008,11,18,15,06,10.20
2008,11,18,15,07,10.10
2008,11,18,15,08,9.90
2008,11,18,15,09,9.80
2008,11,18,15,10,9.70
2008,11,18,15,11,9.60
2008,11,18,15,12,9.50
2008,11,18,15,13,9.50
2008,11,18,15,14,9.40
2008,11,18,15,15,9.30
2008,11,18,15,16,9.30
2008,11,18,15,17,9.20
2008,11,18,15,18,9.20
2008,11,18,15,19,9.20
2008,11,18,15,20,9.10
2008,11,18,15,21,9.10
2008,11,18,15,22,9.10
2008,11,18,15,23,9.00
2008,11,18,15,24,9.00
2008,11,18,15,25,8.90
2008,11,18,15,26,8.90
2008,11,18,15,27,8.80
2008,11,18,15,28,8.80
2008,11,18,15,29,8.80
2008,11,18,15,30,8.80
2008,11,18,15,31,8.70
2008,11,18,15,32,8.70
2008,11,18,15,33,8.60
2008,11,18,15,34,8.60
2008,11,18,15,35,8.50
2008,11,18,15,36,8.50
2008,11,18,15,37,8.40
2008,11,18,15,38,8.40
2008,11,18,15,39,8.30
2008,11,18,15,40,8.30
2008,11,18,15,41,8.30
2008,11,18,15,42,8.20
2008,11,18,15,43,8.20
2008,11,18,15,44,8.20
2008,11,18,15,45,8.10
2008,11,18,15,46,8.10
2008,11,18,15,47,8.10
2008,11,18,15,48,8.10
2008,11,18,15,49,8.00
2008,11,18,15,50,8.00
2008,11,18,15,51,8.00
2008,11,18,15,52,8.00
2008,11,18,15,53,7.90
2008,11,18,15,54,7.90
2008,11,18,15,55,7.90
2008,11,18,15,56,7.90
2008,11,18,15,57,7.90
2008,11,18,15,58,7.80
2008,11,18,15,59,7.80
2008,11,18,16,00,7.80
2008,11,18,16,01,7.70
2008,11,18,16,02,7.70
2008,11,18,16,03,7.60
2008,11,18,16,04,7.60
2008,11,18,16,05,7.60
2008,11,18,16,06,7.50
2008,11,18,16,07,7.50
2008,11,18,16,08,7.40
2008,11,18,16,09,7.40
2008,11,18,16,10,7.30
2008,11,18,16,11,7.30
2008,11,18,16,12,7.20
2008,11,18,16,13,7.20
2008,11,18,16,14,7.20
2008,11,18,16,15,7.20
2008,11,18,16,16,7.20
2008,11,18,16,17,7.20
2008,11,18,16,18,7.10
2008,11,18,16,19,7.10
2008,11,18,16,20,7.10
2008,11,18,16,21,7.10
2008,11,18,16,22,7.10
2008,11,18,16,23,7.00
2008,11,18,16,24,6.90
2008,11,18,16,25,6.90
2008,11,18,16,26,6.80
2008,11,18,16,27,6.70
2008,11,18,16,28,6.70
2008,11,18,16,29,6.60
2008,11,18,16,30,6.60
2008,11,18,16,31,6.50
2008,11,18,16,32,6.50
2008,11,18,16,33,6.40
2008,11,18,16,34,6.40
2008,11,18,16,35,6.40
2008,11,18,16,36,6.30
2008,11,18,16,37,6.30
2008,11,18,16,38,6.30
2008,11,18,16,39,6.30
2008,11,18,16,40,6.20
2008,11,18,16,41,6.20
2008,11,18,16,42,6.20
2008,11,18,16,43,6.10
2008,11,18,16,44,6.10
2008,11,18,16,45,6.10
2008,11,18,16,46,6.10
2008,11,18,16,47,6.10
2008,11,18,16,48,6.00
2008,11,18,16,49,6.00
2008,11,18,16,50,6.00
2008,11,18,16,51,5.90
2008,11,18,16,52,5.90
2008,11,18,16,53,5.90
2008,11,18,16,54,5.90
2008,11,18,16,55,5.90
2008,11,18,16,56,5.80
2008,11,18,16,57,5.80
2008,11,18,16,58,5.80
2008,11,18,16,59,5.70
2008,11,18,17,00,5.70
2008,11,18,17,01,5.60
2008,11,18,17,02,5.60
2008,11,18,17,03,5.50
2008,11,18,17,04,5.50
2008,11,18,17,05,5.40
2008,11,18,17,06,5.40
2008,11,18,17,07,5.30
2008,11,18,17,08,5.30
2008,11,18,17,09,5.30
2008,11,18,17,10,5.30
2008,11,18,17,11,5.30
2008,11,18,17,12,5.30
2008,11,18,17,13,5.20
2008,11,18,17,14,5.20
2008,11,18,17,15,5.20
2008,11,18,17,16,5.20
2008,11,18,17,17,5.20
2008,11,18,17,18,5.20
2008,11,18,17,19,5.20
2008,11,18,17,20,5.20
2008,11,18,17,21,5.20
2008,11,18,17,22,5.20
2008,11,18,17,23,5.20
2008,11,18,17,40,4.80
2008,11,18,17,41,4.80
2008,11,18,17,42,4.80
2008,11,18,17,43,4.70
2008,11,18,17,44,4.70
2008,11,18,17,45,4.70
2008,11,18,17,46,4.70
2008,11,18,17,47,4.70
2008,11,18,17,48,4.60
2008,11,18,17,49,4.60
2008,11,18,17,50,4.60
2008,11,18,17,51,4.50
2008,11,18,17,52,4.50
2008,11,18,17,53,4.40
2008,11,18,17,54,4.40
2008,11,18,17,55,4.40
2008,11,18,17,56,4.30
2008,11,18,17,57,4.30
2008,11,18,17,58,4.30
2008,11,18,17,59,4.30
2008,11,18,18,00,4.20
2008,11,18,18,01,4.20
2008,11,18,18,02,4.20
2008,11,18,18,03,4.20
2008,11,18,18,04,4.20
2008,11,18,18,05,4.20